Location: Unspecified
(0.0000°N, 0.0000°E)
Time: 03:30:16
(UTC+02:00)

H-2A R/B - Visible Passes

Search period start: 01 October 2016 00:00
Search period end: 11 October 2016 00:00
Orbit: 310 x 33134 km, 28.0° (Epoch: 30 September)

Date Brightness Start Highest point End Pass type
(mag) Time Alt. Az. Time Alt. Az. Time Alt. Az.
01 Oct 6.9 23:38:34 10° WNW 01:24:45 64° WNW 08:36:33 10° SE visible
02 Oct 6.4 18:44:47 10° NNW 01:16:59 58° SE 03:37:51 10° SE visible
04 Oct 6.6 00:15:11 10° WNW 01:54:52 53° W 09:10:20 10° ESE visible
04 Oct 6.7 19:18:00 10° NW 19:41:54 41° NE 04:14:15 10° SE visible
06 Oct 6.2 00:53:21 10° WNW 02:26:30 42° W 09:43:53 10° ESE visible
06 Oct 6.9 19:51:15 10° NW 20:28:46 51° NE 04:49:48 10° SE visible
08 Oct 8.5 01:34:24 10° WNW 02:58:27 31° W 06:28:53 10° WSW visible
08 Oct 7.2 20:24:32 10° NW 00:49:24 77° SSE 05:24:42 10° SE visible
09 Oct 8.9 20:41:25 10° ESE 22:34:07 18° ESE 23:44:14 10° ESE visible
10 Oct 8.7 02:21:47 10° WNW 03:30:16 21° W 05:41:16 10° W visible
